Location: SE Lincoln, NE
(40.7805°N, 96.6275°W)
Time: 13:01:50
(UTC-06:00)

Daily predictions for brighter satellites

Satellite Brightness Start Highest point End
(mag) Time Altitude Azimuth Time Altitude Azimuth Time Altitude Azimuth
Nadezhda 4 Rocket 4.4 17:21:16 10° N 17:27:17 44° ENE 17:33:16 10° SSE
Meteor PRIRODA 3.6 17:27:51 10° SSE 17:31:30 89° W 17:35:10 10° NNW
Cosmos 1842 Rocket 3.7 17:29:23 10° S 17:33:43 57° E 17:38:07 10° NNE
BREEZE-M DEB (TANK) 4.4 17:23:54 10° WNW 17:35:32 73° NNE 17:39:05 10° ESE
Cosmos 1606 2.7 17:33:33 10° S 17:37:17 88° W 17:41:05 10° N
USA 267 4.1 17:32:30 10° NE 17:38:32 41° NNW 17:44:33 10° W
Cosmos 1939 Rocket 2.9 17:34:51 10° SSE 17:38:56 62° ENE 17:43:00 10° N
Cosmos 1862 4.0 17:37:38 10° NNW 17:41:34 60° W 17:45:30 10° S
SL-08 R/B 4.5 17:38:33 10° N 17:43:03 44° WNW 17:47:27 10° SW
CORIOLIS 4.2 17:39:00 10° SSE 17:44:16 60° ENE 17:49:36 10° N
Sich 1 4.4 17:42:35 10° NNE 17:45:23 17° ENE 17:48:11 10° ESE
ATLAS CENTAUR R/B 3.7 17:45:16 10° W 17:48:16 19° NW 17:51:26 10° N
USA 229 DEB 4.5 17:42:59 10° NNW 17:49:41 37° NE 17:56:43 10° ESE
USA 229 4.5 17:43:05 10° NNW 17:49:46 36° NE 17:56:47 10° ESE
SMAP 3.0 17:45:19 10° SSE 17:49:57 77° ENE 17:54:37 10° N
Cosmos 2221 2.7 17:47:48 10° SSW 17:52:02 75° W 17:56:20 10° N
Cosmos 2034 Rocket 3.9 17:46:12 10° S 17:52:20 74° E 17:58:29 10° N
Cosmos 1833 Rocket 3.2 17:48:02 10° S 17:53:13 40° ESE 17:58:25 10° NE
ISS -1.4 17:53:20 10° NNW 17:55:04 13° N 17:56:47 10° NNE
CZ-4B R/B 3.6 17:54:35 10° SE 17:59:35 38° ENE 18:04:31 10° N
H-2A R/B 2.2 17:55:24 10° SE 18:00:26 48° ENE 18:05:22 10° N
ARGOS 3.8 17:57:41 10° SE 18:02:24 32° ENE 18:07:08 10° N
deb Chang Zheng 4 4.2 17:58:41 10° SE 18:02:28 31° ENE 18:06:18 10° N
Cosmos 1898 Rocket 4.1 17:57:41 10° N 18:02:29 34° ENE 18:07:13 10° SE
COSMO-SKYMED 1 3.2 17:58:54 10° NNE 18:02:54 34° E 18:06:50 10° SSE
Cosmos 44 3.2 17:58:24 10° NNW 18:03:05 53° NE 18:07:27 10° SE
ATLAS CENTAUR R/B 3.3 17:52:10 10° SW 18:04:24 82° SE 18:08:33 15° NE
Cosmos 468 Rocket 4.0 18:00:16 10° S 18:05:17 60° ESE 18:10:23 10° NNE
Okean O Rocket 2.3 18:05:06 10° SE 18:08:59 31° ENE 18:12:55 10° N
USA 234 3.6 18:04:04 10° SE 18:10:35 71° SW 18:17:07 10° NW
Cosmos 540 Rocket 3.9 18:07:59 10° S 18:12:43 40° ESE 18:16:30 15° NE
NOSS 3-1 (A) 4.2 18:06:01 10° NNW 18:13:24 53° NE 18:21:57 10° SE
COSMOS 2455 3.5 18:10:06 10° S 18:15:23 33° ESE 18:18:38 20° ENE
NOSS 3-1 (C) 4.1 18:08:46 10° NNW 18:16:27 81° NE 18:25:22 10° SE
Cosmos 1634 Rocket 4.1 18:11:30 10° SSE 18:17:36 55° E 18:23:45 10° NNE
ATLAS 5 CENTAUR R/B 4.1 18:15:09 10° NNW 18:19:44 16° N 18:21:17 14° NNE
Cosmos 1782 3.0 18:18:38 10° SSE 18:22:28 46° E 18:25:07 18° NNE
Cosmos 2084 4.1 18:20:48 10° NNW 18:24:47 35° NE 18:26:08 29° E
CZ-2C R/B 2.5 18:21:04 10° NNE 18:26:15 63° E 18:31:21 10° S
SKYMED 3 4.5 18:22:43 10° NNE 18:27:03 65° E 18:31:21 10° S
USA 276 3.3 18:25:55 10° NW 18:28:28 26° NNE 18:28:28 26° NNE
Cosmos 1743 Rocket 3.8 18:27:26 10° NNW 18:31:46 71° W 18:36:03 10° S
Cosmos 1812 3.6 18:28:34 10° SSE 18:31:23 30° ESE 18:31:23 30° ESE
Meteor 1-25 Rocket 4.1 18:29:08 10° N 18:34:43 90° WSW 18:40:19 10° S
Cosmos 2026 Rocket 3.8 18:28:34 10° N 18:34:44 71° E 18:40:47 10° SSE
Cosmos 1340 Rocket 3.8 18:32:31 10° NNW 18:36:27 49° W 18:40:23 10° S
Cosmos 2195 Rocket 4.4 18:30:46 10° N 18:36:56 87° E 18:43:08 10° S
GEOS 3 Rocket 3.7 18:41:32 26° ESE 18:44:18 54° NE 18:49:22 10° NNW
Meteor 2-21 4.3 18:38:27 10° N 18:44:33 76° E 18:50:35 10° SSE
Cosmos 1602 3.7 18:40:47 10° N 18:44:38 81° W 18:48:29 10° S
MOS 1-B Rocket 4.2 18:38:57 10° N 18:44:44 74° WNW 18:51:14 10° SSW
Cosmos 1933 4.0 18:42:00 10° SSW 18:45:58 54° W 18:49:57 10° N
Cosmos 1763 Rocket 4.1 18:41:33 10° SW 18:46:29 54° WNW 18:51:29 10° N
Cosmos 841 Rocket 3.4 18:43:12 10° S 18:48:19 67° ESE 18:50:42 32° NNE
Cosmos 1151 Rocket 3.1 18:44:29 10° SSE 18:48:32 50° E 18:48:32 50° E
Cosmos 2369 3.9 18:43:07 10° NNW 18:48:39 47° ENE 18:50:39 34° ESE
CZ-4C R/B 3.6 18:43:04 10° NNW 18:49:24 32° NE 18:50:43 30° ENE
Cosmos 1937 Rocket 3.4 18:44:43 10° NNW 18:50:01 66° ENE 18:55:18 10° SSE
DMSP B5D2-2 4.4 18:50:10 41° E 18:50:33 42° E 18:55:29 10° S
SKYMED 2 3.8 18:46:42 10° N 18:51:01 68° WNW 18:55:18 10° SSW
Cosmos 1697 Rocket 2.5 18:50:26 10° NNW 18:56:05 82° ENE 19:01:41 10° SSE
Cosmos 1980 Rocket 2.5 18:52:46 10° NNW 18:58:03 44° NE 18:58:03 44° NE
IRAS Rocket 4.4 19:02:15 48° ESE 19:02:15 48° ESE 19:07:31 10° S
Cosmos 2082 Rocket 2.1 18:58:51 10° SSW 19:04:30 73° ESE 19:06:10 47° NE
COSMOS 2406 3.6 19:05:15 10° SW 19:10:56 61° WNW 19:14:26 24° N
GPS 2-04 Rocket1 3.8 19:07:31 10° WSW 19:10:52 36° S 19:10:52 36° S
Meteor 2-6 Rocket 4.1 19:07:54 10° S 19:13:41 66° E 19:14:24 60° ENE
Meteor 2-15 4.4 19:08:52 10° S 19:14:47 58° E 19:14:47 58° E
Cosmos 372 Rocket 4.0 19:10:50 10° NNW 19:15:27 64° NNE 19:15:27 64° NNE
Cosmos 1570 Rocket 4.2 19:12:21 10° S 19:16:41 55° SSE 19:16:41 55° SSE
Feng Yun 1-1 Rocket 4.3 19:13:23 10° SSE 19:19:18 86° WSW 19:25:15 10° NNW
NOSS 2-2 (C) 4.5 19:15:40 10° NNW 19:20:46 58° NE 19:20:46 58° NE
Sich 1 4.4 19:19:14 10° NNW 19:23:12 38° W 19:27:11 10° SSW
Meteor 2-8 Rocket 4.4 19:26:50 10° S 19:32:58 84° W 19:35:22 40° N
Cosmos 1814 Rocket 4.2 19:30:55 10° SSW 19:35:42 70° WSW 19:35:42 70° WSW
Cosmos 1833 Rocket 4.3 19:32:20 10° WSW 19:37:12 30° NW 19:40:30 17° N
USA 229 DEB 4.4 19:33:42 10° NW 19:41:01 60° WSW 19:48:42 10° SSE
USA 229 4.4 19:33:48 10° NW 19:41:07 60° WSW 19:48:33 11° SSE
Okean O Rocket 3.9 19:41:46 10° SSW 19:45:20 24° W 19:48:57 10° NW
COSMOS 2455 3.8 19:55:32 10° WSW 20:01:11 41° NW 20:01:50 40° NW
CZ-4C R/B 3.7 20:31:06 10° NW 20:35:57 46° NW 20:35:57 46° NW
Cosmos 1980 Rocket 4.4 20:37:19 10° NW 20:39:54 21° WNW 20:39:54 21° WNW
